Location: Isle of Man Observatory
(54.1776°N, 4.6264°W)
Time: 05:53:29
(UTC+02:00)

ISS - Visible Passes

Search period start: 19 July 2018 00:00
Search period end: 29 July 2018 00:00
Orbit: 402 x 408 km, 51.6° (Epoch: 19 July)

Date Brightness Start Highest point End Pass type
(mag) Time Alt. Az. Time Alt. Az. Time Alt. Az.
19 Jul -3.2 01:30:34 20° SSW 01:32:14 34° SSE 01:35:16 10° E visible
19 Jul -3.8 03:05:12 10° WSW 03:08:26 55° S 03:11:41 10° E visible
19 Jul -3.2 04:41:37 10° W 04:44:40 35° SSW 04:47:43 10° SE visible
20 Jul -2.8 00:37:29 10° SSW 00:40:17 26° SSE 00:43:04 10° E visible
20 Jul -3.8 02:13:10 10° WSW 02:16:24 52° S 02:19:37 10° E visible
20 Jul -3.5 03:49:30 10° W 03:52:40 44° SSW 03:55:50 10° ESE visible
20 Jul -2.4 23:45:59 10° SSW 23:48:21 19° SSE 23:50:44 10° ESE visible
21 Jul -3.6 01:21:11 10° WSW 01:24:21 46° SSE 01:27:32 10° E visible
21 Jul -3.7 02:57:24 10° W 03:00:37 51° S 03:03:50 10° ESE visible
21 Jul -2.7 04:33:59 10° W 04:36:43 24° SSW 04:39:28 10° SSE visible
22 Jul -3.3 00:29:15 10° SW 00:32:19 37° SSE 00:35:24 10° E visible
22 Jul -3.8 02:05:19 10° W 02:08:33 55° S 02:11:47 10° ESE visible
22 Jul -3.1 03:41:45 10° W 03:44:44 32° SSW 03:47:44 10° SE visible
22 Jul -1.7 05:20:03 10° SW 05:20:30 10° SW 05:20:56 10° SSW visible
22 Jul -2.9 23:37:26 10° SW 23:40:18 28° SSE 23:43:12 10° E visible
23 Jul -3.8 01:13:14 10° WSW 01:16:28 54° S 01:19:42 10° E visible
23 Jul -3.5 02:49:36 10° W 02:52:44 41° SSW 02:53:17 37° SSE visible
24 Jul -3.6 00:21:11 10° WSW 00:24:23 48° S 00:27:34 10° E visible
24 Jul -3.7 01:57:27 10° W 02:00:39 49° S 02:01:39 34° SE visible
24 Jul -1.3 03:34:06 10° W 03:34:15 11° W 03:34:15 11° W visible
24 Jul -3.4 23:29:12 10° SW 23:32:17 40° SSE 23:35:25 10° E visible
25 Jul -3.8 01:05:19 10° W 01:08:33 54° S 01:10:40 19° ESE visible
25 Jul -2.1 02:41:47 10° W 02:43:16 21° WSW 02:43:16 21° WSW visible
26 Jul -3.7 00:13:11 10° WSW 00:16:25 55° S 00:19:39 10° E visible
26 Jul -3.3 01:49:35 10° W 01:52:29 37° SSW 01:52:29 37° SSW visible
26 Jul -3.6 23:21:05 10° WSW 23:24:18 51° S 23:27:30 10° E visible
27 Jul -3.5 00:57:23 10° W 01:00:33 46° SSW 01:01:47 30° SE visible
27 Jul -1.3 02:34:08 10° WSW 02:34:24 11° WSW 02:34:24 11° WSW visible
28 Jul -3.7 00:05:12 10° W 00:08:25 53° S 00:11:07 14° ESE visible
28 Jul -2.4 01:41:44 10° W 01:43:45 23° SW 01:43:45 23° SW visible
28 Jul -3.6 23:13:02 10° WSW 23:16:16 55° S 23:19:30 10° ESE visible
